Location: ??
(35.5052°N, 139.7262°E)
Time: 22:00:36
(UTC+00:00)

COSMOS 1867 COOLANT - Visible Passes

Search period start: 22 January 2022 00:00
Search period end: 01 February 2022 00:00
Orbit: 772 x 801 km, 65.0° (Epoch: 21 January)

Date Brightness Start Highest point End Pass type
(mag) Time Alt. Az. Time Alt. Az. Time Alt. Az.
22 Jan ? 20:07:41 10° SSE 20:11:48 22° ESE 20:15:56 10° ENE visible
23 Jan ? 19:36:47 10° SE 19:39:51 15° ESE 19:42:55 10° ENE visible
24 Jan ? 20:45:14 10° SSW 20:50:41 88° WNW 20:56:11 10° NNE visible
25 Jan ? 20:13:12 10° SSW 20:18:35 66° ESE 20:24:01 10° NE visible
26 Jan ? 19:41:22 10° S 19:46:32 46° ESE 19:51:44 10° NE visible
27 Jan ? 19:09:45 10° S 19:14:31 32° ESE 19:19:19 10° NE visible
27 Jan ? 20:53:08 10° WSW 20:57:59 32° NW 21:02:54 10° N visible
28 Jan ? 18:41:08 20° SE 18:42:32 23° ESE 18:46:42 10° ENE visible
28 Jan ? 20:21:55 17° WSW 20:25:45 44° NW 20:30:59 10° NNE visible
29 Jan ? 18:11:42 15° E 18:11:42 15° E 18:13:44 10° ENE visible
29 Jan ? 19:52:26 50° WSW 19:53:34 62° WNW 19:59:00 10° NNE visible
30 Jan ? 19:22:27 60° NNE 19:22:27 60° NNE 19:26:55 10° NNE visible
30 Jan ? 21:03:09 10° WNW 21:05:46 14° NW 21:08:25 10° NNW visible
31 Jan ? 18:52:09 29° NE 18:52:09 29° NE 18:54:45 10° NE visible
31 Jan ? 20:32:50 18° NW 20:33:22 18° NW 20:37:04 10° N visible
